Home   Weather   Blackpool   Past weeks

Flag for United Kingdom Past Weather in Blackpool, England, United Kingdom — Yesterday and Last 2 Weeks

Now
55 °F

Passing clouds.


Feels Like: 53 °F
Forecast: 60 / 65 °F
Wind: 10 mph from Southeast

Location: Liverpool Airport

Current Time: Sep 27, 2016 at 4:38:27 AM

Latest Report: Sep 27, 2016 at 4:20 AM


Visibility: N/A

Pressure: 30.01 "Hg

Humidity: 88%

Dew Point: 52 °F

Location of BlackpoolLocation

Past Weather in Blackpool — Graph

°F

Blackpool Temperature Yesterday

Maximum temperature yesterday: 59 °F (at 3:50 PM)
Minimum temperature yesterday: 48 °F (at 5:20 AM)
Average temperature yesterday: 54 °F

High & Low Weather Summary for the Past Weeks

 TemperatureHumidityPressure
High79 °F (Sep 14, 4:50 PM)100% (Sep 13, 6:20 PM)30.24 "Hg (Sep 13, 6:20 PM)
Low48 °F (Sep 18, 5:20 AM)52% (Sep 25, 3:20 PM)29.65 "Hg (Sep 25, 2:20 AM)
Average60 °F81%30.00 "Hg
* Reported Sep 12 3:20 AM — Sep 27 3:20 AM, Blackpool, Weather by CustomWeather, © 2016

Note: Actual official high and low records may vary slightly from our data, if they occured in-between our weather recording intervals... More about our weather records

Advertising

Blackpool Weather History for the Previous 24 Hours

Scroll right to see more
 ConditionsComfort  
Time TempWeatherWind HumidityBarometerVisibility
3:20 AM
Tue, Sep 27
57 °FPassing clouds.8 mph88%30.04 "HgN/A
2:50 AM57 °FClear.9 mph88%30.04 "Hg10 mi
2:20 AM55 °FPassing clouds.8 mph94%30.04 "HgN/A
1:50 AM55 °FPassing clouds.8 mph94%30.04 "HgN/A
1:20 AM55 °FPassing clouds.8 mph94%30.07 "HgN/A
12:50 AM55 °FPassing clouds.7 mph94%30.07 "HgN/A
12:20 AM55 °FPassing clouds.6 mph94%30.07 "HgN/A
11:50 PM
Mon, Sep 26
55 °FPassing clouds.5 mph94%30.07 "HgN/A
11:20 PM55 °FPassing clouds.6 mph94%30.07 "HgN/A
10:50 PM57 °FPassing clouds.6 mph94%30.07 "HgN/A
10:20 PM57 °FPartly cloudy.6 mph94%30.07 "HgN/A
9:50 PM55 °FLight rain. Partly cloudy.6 mph100%30.09 "Hg5 mi
9:20 PM55 °FPartly cloudy.6 mph100%30.09 "Hg4 mi
8:50 PM57 °FSprinkles. Partly cloudy.6 mph94%30.07 "Hg4 mi
8:20 PM57 °FSprinkles. Passing clouds.5 mph94%30.07 "Hg4 mi
7:50 PM57 °FSprinkles. Passing clouds.5 mph94%30.07 "Hg4 mi
7:20 PM57 °FSprinkles. Passing clouds.6 mph94%30.07 "Hg5 mi
6:50 PM57 °FSprinkles. Partly sunny.6 mph94%30.07 "HgN/A
6:20 PM57 °FSprinkles. Scattered clouds.6 mph94%30.04 "HgN/A
5:50 PM59 °FPassing clouds.6 mph88%30.04 "HgN/A
5:20 PM59 °FPassing clouds.9 mph88%30.04 "HgN/A
4:50 PM59 °FScattered clouds.14 mph88%30.04 "HgN/A
4:20 PM59 °FScattered showers. Broken clouds.6 mph94%30.04 "HgN/A
3:50 PM59 °FSprinkles. Broken clouds.13 mph94%30.04 "Hg2 mi
3:20 PM57 °FSprinkles. Broken clouds.10 mph94%30.04 "Hg4 mi
2:50 PM57 °FSprinkles. Broken clouds.14 mph94%30.04 "Hg5 mi
2:20 PM57 °FSprinkles. Broken clouds.13 mph94%30.04 "HgN/A
1:50 PM57 °FSprinkles. Partly sunny.13 mph88%30.04 "HgN/A
1:20 PM57 °FLight rain. Partly sunny.13 mph88%30.04 "HgN/A
12:50 PM55 °FLight rain. Partly sunny.12 mph94%30.04 "HgN/A
12:20 PM55 °FLight rain. Partly sunny.10 mph88%30.07 "HgN/A
11:50 AM55 °FLight rain. Partly sunny.10 mph94%30.07 "Hg6 mi
11:20 AM55 °FLight rain. Scattered clouds.8 mph88%30.07 "HgN/A
10:50 AM54 °FScattered clouds.8 mph94%30.07 "HgN/A
10:20 AM54 °FScattered clouds.6 mph94%30.09 "HgN/A
9:50 AM54 °FScattered clouds.5 mph94%30.09 "HgN/A
9:20 AM54 °FScattered clouds.6 mph94%30.09 "HgN/A
8:50 AM54 °FPassing clouds.6 mph88%30.07 "HgN/A
8:20 AM52 °FPassing clouds.5 mph94%30.07 "HgN/A
7:50 AM52 °FScattered showers. Passing clouds.6 mph94%30.07 "HgN/A
7:20 AM52 °FPassing clouds.6 mph88%30.07 "HgN/A
6:50 AM52 °FPassing clouds.5 mph88%30.07 "HgN/A
6:20 AM52 °FPassing clouds.6 mph88%30.07 "HgN/A
5:50 AM50 °FPassing clouds.6 mph94%30.07 "HgN/A
5:20 AM48 °FPassing clouds.6 mph94%30.07 "HgN/A
4:50 AM50 °FPassing clouds.5 mph88%30.07 "HgN/A
4:20 AM50 °FPassing clouds.5 mph94%30.07 "HgN/A
Weather by CustomWeather, © 2016

See weather overviewHow to use our weather pages